Flag for Austria Past Weather in Feldkirchen in Kärnten, Carinthia, Austria — Yesterday and Last 2 Weeks

Now
40 °F

Passing clouds.


Feels Like: N/A
Forecast: 30 / 43 °F
Wind: N/A

Location: Klagenfurt-Flughafen

Current Time: Feb 22, 2017 at 11:17:06 pm

Latest Report: Feb 22, 2017 at 10:00 pm


Visibility: 8 mi

Pressure: 29.94 "Hg (28.01 "Hg at 541m altitude)

Humidity: 79%

Dew Point: 34 °F

Location of Feldkirchen in KärntenLocation

Past Weather in Feldkirchen in Kärnten — Graph

°F

Feldkirchen in Kärnten Temperature Yesterday

Maximum temperature yesterday: 45 °F (at 4:00 pm)
Minimum temperature yesterday: 31 °F (at 5:00 am)
Average temperature yesterday: 37 °F

High & Low Weather Summary for the Past Weeks

 TemperatureHumidityPressure
High57 °F (Feb 22, 3:00 pm)100% (Feb 18, 4:00 am)30.75 "Hg (Feb 18, 4:00 am)
Low23 °F (Feb 15, 7:00 am)51% (Feb 22, 3:00 pm)29.85 "Hg (Feb 22, 4:00 pm)
Average34 °F84%30.35 "Hg
* Reported Feb 7 9:00 pm — Feb 22 9:00 pm, Feldkirchen in Kärnten, Weather by CustomWeather, © 2017

Note: Actual official high and low records may vary slightly from our data, if they occured in-between our weather recording intervals... More about our weather records

Advertising

Feldkirchen in Kärnten Weather History for the Previous 24 Hours

Scroll right to see more
 ConditionsComfort  
Time TempWeatherWind HumidityBarometerVisibility
9:00 pm
Wed, Feb 22
43 °FPassing clouds.N/A73%29.93 "Hg10 mi
8:00 pm43 °FPassing clouds.N/A73%29.92 "Hg11 mi
7:00 pm47 °FPassing clouds.N/A64%29.91 "Hg16 mi
6:00 pm49 °FPassing clouds.5 mph62%29.88 "Hg16 mi
5:00 pm53 °FPartly sunny.N/A54%29.86 "Hg17 mi
4:00 pm54 °FPartly sunny.N/A58%29.85 "Hg12 mi
3:00 pm57 °FPassing clouds.N/A51%29.85 "Hg7 mi
2:00 pm54 °FPassing clouds.N/A55%29.88 "Hg12 mi
1:00 pm52 °FPassing clouds.N/A57%29.92 "Hg12 mi
12:00 pm47 °FScattered clouds.N/A65%29.98 "Hg11 mi
11:00 am43 °FPartly sunny.N/A75%30.03 "Hg10 mi
10:00 am38 °FOvercast.N/A84%30.05 "Hg10 mi
9:00 am36 °FOvercast.N/A88%30.06 "Hg7 mi
8:00 am34 °FOvercast.N/A90%30.08 "Hg10 mi
7:00 am34 °FPartly sunny.N/A91%30.06 "Hg9 mi
6:00 am34 °FOvercast.N/A91%30.08 "Hg11 mi
5:00 am35 °FOvercast.N/A89%30.08 "Hg11 mi
4:00 am35 °FOvercast.N/A87%30.08 "Hg11 mi
3:00 am35 °FOvercast.N/A87%30.09 "Hg11 mi
2:00 am36 °FOvercast.N/A87%30.09 "Hg9 mi
1:00 am36 °FOvercast.N/A87%30.09 "Hg11 mi
12:00 am36 °FOvercast.N/A87%30.07 "Hg9 mi
11:00 pm
Tue, Feb 21
37 °FOvercast.N/A84%30.06 "Hg12 mi
Weather by CustomWeather, © 2017

See weather overviewHow to use our weather pages